Wind_Speed
30 31 32 33 33 34 35 35 36 34 33 31 32 32 31 30 29 28 29 29 30 30 30 30 30 29 28 29 30 30 31 31 32 33 34 36 36 37 38 38 38 38 39 39
30 30 32 33 33 33 35 36 36 34 33 32 32 32 32 30 29 29 28 28 29 30 30 30 30 30 30 30 30 31 31 31 32 33 34 35 36 36 37 38 38 38 38 38
31 31 32 34 32 32 33 33 34 33 32 32 32 32 31 31 30 29 29 29 29 29 29 29 30 30 30 30 30 30 30 30 31 32 32 33 34 35 36 37 37 37 37 38
31 30 31 29 29 30 31 31 32 32 31 32 31 31 32 31 30 30 29 29 30 30 30 29 30 30 30 30 30 30 30 31 31 31 31 32 33 34 34 35 35 36 36 36
29 29 29 27 27 28 29 29 30 30 29 30 30 30 30 30 30 30 29 29 30 30 30 30 29 29 29 30 29 29 30 30 30 31 31 32 32 32 33 33 33 33 34 34
31 30 29 27 26 26 27 27 27 28 28 28 28 29 28 29 29 29 28 28 29 29 30 30 29 29 29 29 29 29 29 30 30 31 31 31 31 30 31 31 32 32 32 32
31 31 29 27 26 26 26 26 25 26 26 27 27 27 27 27 27 27 27 27 28 29 29 29 29 28 28 28 28 29 30 30 30 30 30 30 29 29 29 30 30 30 30 30
29 30 28 27 27 27 26 25 26 26 25 25 25 26 26 26 26 26 27 27 28 29 29 28 28 28 28 28 29 29 29 30 29 29 29 29 29 29 29 30 30 29 29 29
26 26 25 26 27 26 26 26 26 27 26 26 26 26 26 26 26 26 27 27 27 27 28 28 28 28 28 29 28 28 28 28 28 28 28 28 28 29 30 30 30 29 29 28
23 22 23 23 24 25 25 26 26 27 27 27 27 27 27 27 27 26 26 26 27 27 27 27 28 28 28 27 27 28 28 28 28 27 27 28 28 29 29 29 28 28 28 28
24 23 23 23 24 24 24 25 26 26 26 26 27 27 26 26 27 27 26 26 26 27 27 27 27 27 27 27 27 27 27 27 27 27 27 28 28 28 28 28 28 28 28 28
23 23 25 23 23 24 24 24 25 25 24 24 25 25 25 25 26 26 26 26 26 26 27 27 26 27 27 27 27 26 26 26 26 27 27 28 28 28 28 27 27 27 27 27
23 24 26 25 25 25 25 25 24 24 24 24 24 24 24 24 25 25 26 26 26 27 27 27 26 26 26 26 25 25 25 25 26 26 27 27 27 27 27 27 27 26 26 26
22 23 23 24 25 25 26 26 25 24 24 24 24 25 25 25 25 25 25 25 25 26 26 26 25 25 25 25 24 24 25 25 25 26 26 26 25 25 25 25 25 24 24 25
21 21 22 22 23 24 24 25 24 24 24 24 25 25 25 25 25 24 24 24 24 24 24 25 25 25 24 24 24 24 25 25 25 25 25 25 24 24 24 23 23 23 23 23
21 21 21 21 20 21 23 23 23 23 23 24 24 24 24 24 24 23 23 23 23 23 24 24 24 24 24 24 24 24 25 25 25 24 24 23 22 22 22 22 22 22 22 22
20 20 20 20 21 21 21 22 22 22 22 23 23 23 22 22 22 22 22 22 23 23 24 24 24 24 24 24 24 24 24 24 24 23 22 21 21 21 21 21 20 19 19 19
19 19 20 20 21 20 20 20 21 21 21 21 22 22 21 21 21 22 22 21 22 23 23 23 23 24 24 24 24 24 24 23 22 22 21 20 20 19 19 19 18 17 17 17
19 19 19 20 20 20 20 20 21 21 21 21 20 20 20 20 21 21 21 21 21 21 22 22 23 23 24 24 24 23 22 21 21 20 19 18 18 17 17 16 16 16 16 16
19 19 19 19 20 20 19 19 19 20 19 19 19 19 19 20 20 20 20 20 20 20 21 22 22 23 22 22 22 21 21 20 19 18 17 16 16 15 15 14 14 14 14 14
18 18 17 18 18 19 18 18 18 18 18 18 19 19 19 19 19 19 19 19 20 20 20 20 20 21 20 20 19 19 19 18 17 16 16 15 14 14 14 14 14 13 13 13
18 18 17 18 17 17 18 18 17 17 18 18 19 19 19 19 19 19 18 18 18 18 18 18 19 19 18 18 17 17 17 16 16 15 15 14 14 13 13 13 13 13 13 13
17 17 17 17 17 17 17 17 17 17 17 17 18 18 18 18 18 18 18 18 18 18 18 18 17 17 16 16 15 15 15 15 15 14 14 14 13 13 13 13 12 12 12 12
17 17 17 17 16 16 15 15 15 15 14 15 16 16 17 17 17 17 17 18 18 18 18 17 16 15 15 14 14 14 14 14 14 14 14 13 13 13 12 12 12 12 11 10
16 16 16 16 15 15 14 14 14 14 14 14 15 15 16 16 17 17 17 17 17 16 16 16 16 15 14 14 14 14 14 14 15 14 14 13 13 13 12 12 12 11 11 10
15 15 15 15 14 14 14 14 14 14 14 14 15 15 15 15 16 16 16 16 16 15 15 15 15 15 15 15 14 14 15 15 15 14 14 14 14 13 13 13 12 12 11 10
14 14 14 13 13 13 13 13 13 13 14 14 14 14 14 14 14 14 14 15 15 15 14 14 14 14 14 14 14 14 14 14 14 14 14 14 14 14 14 13 12 11 10 10
Wind_Direction
268 270 269 267 265 265 265 266 267 268 267 265 264 263 263 263 264 266 268 267 267 268 269 270 269 268 267 269 269 270 271 271 270 271 270 269 270 270 272 273 274 275 277 277
268 269 268 266 267 267 265 265 266 266 265 264 263 262 262 263 265 266 268 268 268 268 270 271 271 269 267 269 270 271 272 272 273 272 272 271 272 272 274 275 275 276 277 278
270 270 268 266 268 266 264 265 265 265 265 263 261 259 260 262 263 265 266 267 269 269 270 270 270 269 269 270 271 272 273 273 273 274 273 273 274 274 276 276 276 277 278 279
270 270 269 270 269 266 264 262 262 262 263 261 260 260 259 260 262 264 265 267 269 269 269 269 270 270 271 272 273 274 276 276 275 275 275 275 276 277 278 279 278 278 278 279
268 270 270 269 270 270 267 264 261 261 261 262 261 260 260 260 262 264 266 268 268 268 268 269 271 271 271 273 274 276 278 276 275 276 276 277 277 278 279 281 281 281 281 280
266 269 270 270 270 271 268 264 261 260 260 258 258 258 259 260 262 264 266 267 268 268 268 269 271 272 272 273 274 275 277 277 276 277 277 278 279 279 281 281 281 281 280 280
265 267 268 269 269 269 267 264 260 259 259 257 257 258 258 259 261 263 265 266 266 267 268 269 270 272 273 274 274 275 276 278 278 278 279 280 280 281 282 282 282 282 281 280
265 265 266 266 266 265 265 263 259 258 257 256 256 256 257 259 261 262 263 264 265 266 267 268 269 271 273 273 274 274 275 277 277 277 278 278 280 281 282 282 283 283 282 282
264 264 265 263 263 264 264 263 260 259 257 257 257 257 259 261 265 266 265 265 265 266 266 267 267 270 273 274 274 274 275 276 276 277 278 279 280 282 283 283 283 283 283 283
262 262 263 263 263 262 262 264 262 260 259 257 259 260 261 263 266 267 267 266 266 266 267 268 268 269 272 273 274 274 275 276 277 277 278 279 281 282 283 283 283 283 282 282
264 264 263 263 263 263 263 264 264 262 260 259 260 262 264 264 265 266 268 267 267 267 267 269 268 268 269 270 272 273 275 276 276 277 279 280 282 284 285 284 283 283 283 282
265 265 265 263 263 262 262 265 264 261 259 260 261 261 263 264 264 266 265 266 267 267 266 266 267 266 267 269 271 273 274 274 275 277 280 282 283 283 284 283 282 283 282 281
268 267 264 264 265 265 265 265 264 263 262 261 261 262 263 264 265 267 267 266 267 267 266 266 266 266 267 267 268 269 271 273 275 278 281 282 283 283 283 283 283 282 281 280
271 269 266 266 268 267 266 264 263 263 263 263 262 264 265 266 267 268 267 266 267 266 264 265 265 266 267 266 266 269 272 275 278 279 282 284 283 283 284 284 283 281 282 281
273 270 268 268 270 269 267 266 264 262 262 262 264 266 266 266 266 267 267 266 266 266 265 265 266 267 266 267 268 270 274 277 279 281 283 284 284 284 284 283 282 282 282 283
275 273 271 272 272 271 270 268 267 264 261 262 264 265 265 264 264 265 266 265 265 267 267 266 266 266 266 268 269 271 273 277 279 280 282 282 282 282 282 282 282 282 282 284
277 274 272 271 272 274 271 267 265 264 263 263 264 264 264 264 264 264 264 265 265 266 266 265 263 264 266 269 271 272 273 276 278 280 282 281 281 280 281 282 283 283 284 287
278 276 273 272 273 272 271 269 267 265 264 262 262 261 261 262 262 262 263 265 266 265 264 263 263 264 266 269 271 273 274 275 276 278 280 282 283 283 283 282 281 282 284 287
277 276 275 272 271 271 271 270 268 265 263 261 260 260 260 261 262 262 262 262 263 264 264 264 265 266 267 269 272 273 273 273 274 276 278 280 281 282 283 281 281 283 285 288
276 277 276 275 272 272 271 269 268 265 263 261 259 260 261 261 262 262 262 262 264 266 267 267 267 267 269 270 271 271 270 271 272 273 275 277 279 282 284 282 280 284 286 289
277 277 277 276 276 272 271 270 269 266 264 262 259 260 260 261 262 263 263 263 265 268 269 270 269 270 270 270 269 268 269 270 269 269 269 271 274 279 282 282 281 281 286 291
277 277 278 279 279 276 272 270 269 267 265 263 262 260 260 262 263 264 264 265 265 267 270 271 271 269 268 266 267 268 268 266 264 264 264 268 272 277 281 282 281 280 284 290
279 279 281 280 279 278 275 271 270 269 266 265 263 262 261 261 263 264 265 265 266 268 271 273 272 268 265 264 266 268 266 264 261 261 263 267 271 276 279 280 281 280 283 287
279 280 281 281 280 279 277 273 271 271 268 265 264 262 260 261 263 264 266 268 268 267 268 268 267 264 261 261 263 264 263 261 260 261 264 266 270 274 277 278 280 281 279 278
279 279 280 281 279 277 277 275 271 270 269 267 266 264 261 260 261 264 266 266 266 266 265 263 261 260 259 260 262 263 263 262 261 260 261 264 269 272 274 276 277 278 275 270
280 279 281 281 278 276 275 273 270 269 270 271 268 266 264 263 263 265 266 264 263 262 261 260 258 257 258 259 262 263 263 264 261 259 260 264 266 268 270 271 272 272 269 264
282 281 281 280 279 277 275 272 269 270 272 272 268 266 265 264 264 266 267 264 262 260 258 257 256 257 259 262 263 263 263 262 259 258 261 262 264 266 268 268 265 262 260 260
Height
5587 5588 5587 5588 5589 5589 5588 5589 5588 5590 5591 5593 5593 5593 5594 5595 5596 5596 5596 5596 5596 5596 5595 5595 5594 5594 5594 5593 5593 5593 5593 5593 5592 5592 5592 5593 5593 5593 5593 5592 5591 5590 5589 5588
5578 5578 5577 5577 5579 5580 5579 5579 5579 5580 5582 5584 5583 5584 5585 5586 5587 5587 5587 5587 5587 5587 5587 5587 5586 5586 5586 5586 5585 5585 5585 5584 5583 5583 5583 5583 5583 5583 5582 5582 5581 5580 5578 5577
5569 5569 5567 5568 5571 5570 5570 5570 5571 5571 5574 5574 5574 5575 5576 5577 5578 5578 5579 5579 5579 5579 5579 5579 5578 5578 5578 5578 5577 5577 5576 5575 5575 5574 5573 5573 5573 5573 5572 5571 5571 5569 5568 5566
5559 5559 5558 5563 5561 5561 5560 5561 5562 5562 5564 5564 5565 5566 5567 5568 5569 5570 5570 5571 5571 5571 5571 5570 5570 5570 5569 5569 5569 5568 5568 5566 5566 5565 5564 5564 5564 5563 5562 5561 5560 5559 5557 5555
5550 5549 5549 5553 5553 5552 5551 5553 5554 5554 5555 5555 5556 5557 5559 5560 5560 5561 5562 5562 5562 5562 5562 5562 5562 5562 5561 5561 5560 5560 5559 5558 5557 5556 5555 5555 5555 5554 5553 5552 5550 5549 5547 5545
5541 5540 5541 5546 5545 5543 5543 5544 5545 5545 5545 5546 5547 5549 5551 5551 5552 5552 5553 5553 5553 5553 5553 5554 5553 5553 5553 5552 5552 5552 5551 5549 5548 5547 5546 5546 5545 5545 5544 5542 5541 5539 5538 5536
5533 5532 5533 5536 5536 5535 5536 5537 5536 5536 5537 5538 5539 5541 5542 5542 5543 5543 5544 5544 5544 5544 5545 5545 5545 5545 5544 5544 5544 5543 5542 5541 5540 5539 5538 5537 5536 5536 5534 5533 5532 5530 5528 5527
5525 5525 5528 5528 5527 5527 5527 5527 5528 5528 5529 5530 5531 5532 5533 5534 5535 5535 5535 5536 5536 5536 5536 5536 5536 5536 5536 5536 5535 5535 5534 5533 5532 5530 5530 5529 5528 5527 5525 5524 5523 5521 5519 5518
5517 5519 5519 5519 5519 5518 5518 5519 5519 5520 5521 5522 5523 5525 5526 5526 5527 5527 5527 5527 5528 5528 5528 5528 5528 5528 5528 5528 5527 5526 5526 5525 5523 5522 5521 5520 5520 5519 5517 5515 5514 5512 5510 5509
5509 5511 5511 5511 5510 5511 5511 5511 5511 5512 5513 5514 5515 5517 5518 5519 5519 5519 5519 5519 5519 5520 5520 5520 5520 5520 5520 5519 5519 5518 5517 5517 5516 5515 5514 5512 5511 5510 5508 5506 5505 5503 5502 5500
5502 5504 5504 5504 5503 5503 5503 5504 5504 5505 5505 5506 5507 5508 5509 5510 5511 5511 5511 5511 5512 5512 5512 5512 5512 5512 5512 5511 5511 5510 5510 5509 5508 5507 5506 5505 5503 5501 5500 5498 5496 5495 5493 5491
5496 5496 5495 5496 5496 5496 5496 5496 5496 5497 5498 5499 5500 5501 5502 5502 5503 5503 5503 5503 5503 5503 5503 5504 5504 5504 5503 5503 5503 5502 5502 5501 5500 5499 5498 5497 5495 5493 5491 5489 5487 5486 5484 5483
5488 5488 5488 5488 5488 5488 5488 5488 5489 5489 5490 5491 5492 5493 5494 5494 5495 5495 5495 5495 5495 5495 5495 5496 5496 5496 5495 5495 5495 5494 5494 5493 5492 5491 5490 5488 5487 5485 5483 5482 5479 5477 5476 5474
5480 5480 5480 5480 5481 5481 5481 5481 5481 5482 5483 5484 5484 5485 5486 5486 5487 5487 5487 5487 5487 5487 5487 5487 5488 5488 5488 5487 5487 5487 5486 5485 5484 5483 5482 5480 5479 5477 5475 5474 5472 5470 5468 5466
5474 5473 5473 5473 5474 5474 5474 5474 5474 5475 5476 5476 5477 5477 5478 5478 5479 5479 5479 5479 5479 5479 5479 5479 5480 5480 5480 5480 5479 5479 5478 5478 5477 5476 5474 5472 5471 5469 5468 5466 5464 5463 5461 5459
5468 5467 5467 5467 5467 5467 5466 5467 5467 5468 5468 5469 5469 5470 5470 5470 5471 5471 5471 5471 5472 5472 5472 5472 5472 5472 5472 5472 5471 5471 5471 5470 5469 5468 5466 5465 5463 5462 5460 5459 5457 5456 5455 5453
5461 5461 5461 5461 5460 5460 5460 5460 5460 5460 5461 5461 5462 5462 5462 5463 5463 5463 5464 5464 5464 5464 5464 5464 5464 5464 5464 5464 5464 5463 5463 5462 5461 5460 5459 5458 5456 5455 5454 5452 5451 5450 5449 5447
5455 5455 5455 5454 5454 5453 5453 5453 5453 5453 5453 5454 5454 5454 5455 5455 5456 5456 5456 5456 5456 5457 5456 5457 5456 5456 5456 5456 5456 5455 5455 5454 5454 5453 5452 5451 5450 5449 5447 5446 5445 5444 5443 5442
5449 5449 5448 5448 5447 5447 5447 5446 5446 5446 5446 5446 5447 5447 5448 5448 5449 5449 5449 5449 5449 5449 5449 5449 5449 5449 5449 5448 5448 5448 5447 5447 5447 5446 5446 5445 5444 5443 5442 5441 5440 5439 5438 5437
5444 5443 5442 5442 5441 5441 5440 5440 5439 5439 5440 5440 5440 5441 5441 5441 5442 5442 5442 5442 5443 5442 5442 5441 5441 5441 5441 5441 5440 5440 5440 5440 5440 5440 5440 5439 5439 5438 5437 5436 5435 5434 5433 5432
5438 5437 5436 5436 5435 5435 5434 5433 5433 5433 5433 5433 5434 5434 5435 5435 5435 5435 5435 5436 5436 5436 5435 5434 5434 5434 5433 5433 5433 5433 5434 5434 5434 5434 5434 5434 5434 5433 5433 5432 5431 5430 5429 5428
5432 5431 5431 5430 5429 5428 5428 5427 5427 5427 5427 5427 5427 5428 5428 5429 5429 5429 5429 5430 5429 5429 5429 5428 5428 5427 5427 5427 5427 5427 5428 5428 5428 5429 5429 5429 5429 5429 5428 5427 5427 5426 5425 5424
5426 5426 5425 5424 5424 5423 5422 5422 5421 5421 5421 5421 5421 5421 5422 5422 5422 5423 5423 5423 5423 5423 5423 5423 5422 5422 5422 5422 5422 5422 5422 5423 5423 5424 5424 5425 5424 5424 5424 5423 5423 5422 5421 5420
5420 5420 5419 5418 5418 5417 5417 5416 5416 5416 5415 5415 5415 5415 5416 5416 5417 5417 5417 5417 5417 5417 5417 5417 5417 5417 5417 5417 5417 5418 5418 5418 5419 5419 5420 5420 5420 5420 5419 5419 5419 5418 5417 5417
5415 5414 5414 5413 5412 5412 5411 5411 5411 5411 5410 5410 5410 5410 5410 5410 5411 5411 5411 5411 5411 5411 5411 5411 5412 5412 5412 5413 5413 5413 5414 5414 5415 5415 5415 5416 5416 5415 5415 5415 5415 5414 5414 5413
5409 5409 5408 5408 5407 5407 5406 5406 5406 5406 5405 5405 5405 5405 5405 5405 5405 5405 5405 5405 5406 5406 5406 5406 5407 5407 5408 5408 5409 5409 5409 5410 5410 5410 5411 5411 5411 5411 5411 5411 5411 5410 5410 5410
5404 5404 5403 5402 5402 5401 5401 5400 5400 5400 5400 5400 5400 5400 5399 5400 5400 5400 5400 5400 5400 5401 5401 5401 5402 5402 5403 5403 5404 5404 5405 5405 5405 5406 5406 5406 5406 5407 5406 5406 5406 5406 5406 5406